H1 CPF 2 NER 2024 10 19 9 293 01 glonass142 H2 2001801 9142 45358 2024 10 19 0 0 0 2024 10 22 23 45 0 900 1 1 0 0 0 1 H9 10 0 60602 0.00000 0 16778574.884 -10033691.076 16423204.753 10 0 60602 900.00000 0 15498682.756 -8302681.802 18514642.251 10 0 60602 1800.00000 0 14231713.035 -6279005.069 20247531.458 10 0 60602 2700.00000 0 13032906.303 -3998530.617 21588328.493 10 0 60602 3600.00000 0 11951038.422 -1507831.045 22511058.514 10 0 60602 4500.00000 0 11026391.784 1137495.499 22997813.768 10 0 60602 5400.00000 0 10289099.424 3874879.400 23039099.255 10 0 60602 6300.00000 0 9757930.475 6637127.115 22634019.622 10 0 60602 7200.00000 0 9439567.278 9354966.751 21790303.607 10 0 60602 8100.00000 0 9328404.344 11959687.987 20524165.036 10 0 60602 9000.00000 0 9406877.843 14385768.549 18860002.158 10 0 60602 9900.00000 0 9646312.433 16573379.479 16829939.904 10 0 60602 10800.00000 0 10008250.739 18470666.009 14473222.510 10 0 60602 11700.00000 0 10446210.491 20035709.578 11835466.771 10 0 60602 12600.00000 0 10907796.229 21238089.158 8967789.028 10 0 60602 13500.00000 0 11337077.131 22059976.355 5925821.681 10 0 60602 14400.00000 0 11677130.836 22496717.831 2768637.478 10 0 60602 15300.00000 0 11872645.511 22556879.890 -442397.815 10 0 60602 16200.00000 0 11872469.365 22261752.706 -3644822.012 10 0 60602 17100.00000 0 11631998.491 21644334.505 -6776298.586 10 0 60602 18000.00000 0 11115300.342 20747838.256 -9775839.522 10 0 60602 18900.00000 0 10296881.069 19623783.893 -12585004.048 10 0 60602 19800.00000 0 9163019.950 18329756.953 -15149048.673 10 0 60602 20700.00000 0 7712612.471 16926928.866 -17418004.845 10 0 60602 21600.00000 0 5957484.651 15477444.366 -19347662.200 10 0 60602 22500.00000 0 3922163.705 14041787.141 -20900437.377 10 0 60602 23400.00000 0 1643113.443 12676235.600 -22046110.862 10 0 60602 24300.00000 0 -832534.424 11430516.601 -22762417.282 10 0 60602 25200.00000 0 -3448700.526 10345756.243 -23035477.640 10 0 60602 26100.00000 0 -6142457.890 9452813.949 -22860065.359 10 0 60602 27000.00000 0 -8846424.198 8771069.432 -22239701.398 10 0 60602 27900.00000 0 -11491346.404 8307712.729 -21186577.174 10 0 60602 28800.00000 0 -14008769.874 8057565.990 -19721307.431 10 0 60602 29700.00000 0 -16333680.904 8003443.045 -17872518.544 10 0 60602 30600.00000 0 -18407012.756 8117030.010 -15676280.921 10 0 60602 31500.00000 0 -20177911.214 8360248.206 -13175397.182 10 0 60602 32400.00000 0 -21605666.005 8687040.339 -10418560.602 10 0 60602 33300.00000 0 -22661228.561 9045503.190 -7459400.698 10 0 60602 34200.00000 0 -23328254.078 9380275.610 -4355435.107 10 0 60602 35100.00000 0 -23603625.889 9635080.112 -1166948.576 10 0 60602 36000.00000 0 -23497441.927 9755310.091 2044178.822 10 0 60602 36900.00000 0 -23032465.527 9690553.136 5215671.191 10 0 60602 37800.00000 0 -22243065.208 9396943.832 8286060.736 10 0 60602 38700.00000 0 -21173689.200 8839246.917 11195872.933 10 0 60602 39600.00000 0 -19876939.674 7992583.170 13888770.332 10 0 60602 40500.00000 0 -18411327.948 6843725.551 16312633.533 10 0 60602 41400.00000 0 -16838804.805 5391911.079 18420559.292 10 0 60602 42300.00000 0 -15222168.968 3649134.120 20171757.462 10 0 60602 43200.00000 0 -13622461.420 1639908.173 21532330.560 10 0 60602 44100.00000 0 -12096453.416 -599494.947 22475922.005 10 0 60602 45000.00000 0 -10694331.993 -3022298.167 22984221.404 10 0 60602 45900.00000 0 -9457678.355 -5572914.032 23047317.838 10 0 60602 46800.00000 0 -8417822.444 -8189012.901 22663894.643 10 0 60602 47700.00000 0 -7594641.567 -10803880.593 21841261.852 10 0 60602 48600.00000 0 -6995852.689 -13348969.581 20595225.167 10 0 60602 49500.00000 0 -6616827.816 -15756539.686 18949793.096 10 0 60602 50400.00000 0 -6440940.360 -17962279.981 16936726.707 10 0 60602 51300.00000 0 -6440428.403 -19907803.992 14594939.314 10 0 60602 52200.00000 0 -6577739.207 -21542914.865 11969756.211 10 0 60602 53100.00000 0 -6807299.082 -22827546.131 9112047.445 10 0 60602 54000.00000 0 -7077634.543 -23733296.625 6077249.277 10 0 60602 54900.00000 0 -7333755.508 -24244494.647 2924292.505 10 0 60602 55800.00000 0 -7519699.708 -24358745.842 -285541.899 10 0 60602 56700.00000 0 -7581130.095 -24086940.844 -3489817.514 10 0 60602 57600.00000 0 -7467874.295 -23452721.495 -6626163.857 10 0 60602 58500.00000 0 -7136297.090 -22491427.502 -9633499.752 10 0 60602 59400.00000 0 -6551403.727 -21248567.572 -12453233.767 10 0 60602 60300.00000 0 -5688583.051 -19777879.483 -15030417.123 10 0 60602 61200.00000 0 -4534914.723 -18139061.221 -17314825.367 10 0 60602 62100.00000 0 -3089983.369 -16395269.386 -19261946.644 10 0 60602 63000.00000 0 -1366163.538 -14610490.961 -20833856.491 10 0 60602 63900.00000 0 611637.959 -12846899.853 -21999961.461 10 0 60602 64800.00000 0 2806772.652 -11162310.009 -22737596.863 10 0 60602 65700.00000 0 5172141.587 -9607832.513 -23032466.967 10 0 60602 66600.00000 0 7651933.404 -8225835.139 -22878919.334 10 0 60602 67500.00000 0 10183736.846 -7048289.620 -22280048.394 10 0 60602 68400.00000 0 12700939.439 -6095575.204 -21247626.792 10 0 60602 69300.00000 0 15135312.108 -5375787.495 -19801866.488 10 0 60602 70200.00000 0 17419671.826 -4884580.065 -17971014.925 10 0 60602 71100.00000 0 19490511.243 -4605543.664 -15790794.752 10 0 60602 72000.00000 0 21290485.763 -4511105.141 -13303698.697 10 0 60602 72900.00000 0 22770654.721 -4563906.311 -10558153.890 10 0 60602 73800.00000 0 23892383.776 -4718602.821 -7607572.489 10 0 60602 74700.00000 0 24628829.994 -4924005.548 -4509307.612 10 0 60602 75600.00000 0 24965948.745 -5125472.832 -1323535.371 10 0 60602 76500.00000 0 24902981.671 -5267451.573 1887914.953 10 0 60602 77400.00000 0 24452406.757 -5296059.237 5062759.557 10 0 60602 78300.00000 0 23639354.026 -5161597.432 8139464.305 10 0 60602 79200.00000 0 22500512.580 -4820890.949 11058431.278 10 0 60602 80100.00000 0 21082575.770 -4239353.704 13763145.038 10 0 60602 81000.00000 0 19440290.194 -3392694.762 16201257.088 10 0 60602 81900.00000 0 17634190.313 -2268192.740 18325588.424 10 0 60602 82800.00000 0 15728113.179 -865484.974 20095031.784 10 0 60602 83700.00000 0 13786596.378 803162.063 21475337.288 10 0 60602 84600.00000 0 11872266.776 2713113.206 22439767.377 10 0 60602 85500.00000 0 10043327.737 4828146.211 22969609.343 10 0 60603 0.00000 0 8351248.340 7101723.316 23054536.246 10 0 60603 900.00000 0 6838748.659 9478702.892 22692809.578 10 0 60603 1800.00000 0 5538166.196 11897418.939 21891319.668 10 0 60603 2700.00000 0 4470267.618 14292048.071 20665462.730 10 0 60603 3600.00000 0 3643557.144 16595164.509 19038855.822 10 0 60603 4500.00000 0 3054109.289 18740379.649 17042894.157 10 0 60603 5400.00000 0 2685933.223 20664957.367 14716157.904 10 0 60603 6300.00000 0 2511853.736 22312296.842 12103678.459 10 0 60603 7200.00000 0 2494872.248 23634179.475 9256077.046 10 0 60603 8100.00000 0 2589950.957 24592685.690 6228591.177 10 0 60603 9000.00000 0 2746145.126 25161700.690 3080007.024 10 0 60603 9900.00000 0 2908993.409 25327944.949 -128481.910 10 0 60603 10800.00000 0 3023064.717 25091485.045 -3334467.619 10 0 60603 11700.00000 0 3034552.956 24465702.173 -6475548.216 10 0 60603 12600.00000 0 2893808.519 23476718.656 -9490551.756 10 0 60603 13500.00000 0 2557697.729 22162305.902 -12320738.336 10 0 60603 14400.00000 0 1991688.467 20570319.357 -14910955.848 10 0 60603 15300.00000 0 1171571.795 18756726.383 -17210725.630 10 0 60603 16200.00000 0 84744.867 16783310.314 -19175235.790 10 0 60603 17100.00000 0 -1269000.845 14715147.792 -20766221.966 10 0 60603 18000.00000 0 -2877220.790 12617966.053 -21952717.751 10 0 60603 18900.00000 0 -4715100.177 10555491.712 -22711659.877 10 0 60603 19800.00000 0 -6746267.449 8586902.727 -23028336.351 10 0 60603 20700.00000 0 -8924104.838 6764490.506 -22896669.047 10 0 60603 21600.00000 0 -11193501.355 5131629.874 -22319325.690 10 0 60603 22500.00000 0 -13492974.929 3721141.255 -21307659.606 10 0 60603 23400.00000 0 -15757074.824 2554112.573 -19881479.028 10 0 60603 24300.00000 0 -17918963.786 1639228.708 -18068651.138 10 0 60603 25200.00000 0 -19913071.882 972634.742 -15904549.188 10 0 60603 26100.00000 0 -21677711.141 538336.685 -13431354.104 10 0 60603 27000.00000 0 -23157541.831 309120.638 -10697224.801 10 0 60603 27900.00000 0 -24305787.697 247949.564 -7755353.893 10 0 60603 28800.00000 0 -25086108.042 309776.882 -4662927.744 10 0 60603 29700.00000 0 -25474049.213 443698.687 -1480011.560 10 0 60603 30600.00000 0 -25458015.736 595352.415 1731618.466 10 0 60603 31500.00000 0 -25039721.602 709459.722 4909672.967 10 0 60603 32400.00000 0 -24234103.987 732405.623 7992553.855 10 0 60603 33300.00000 0 -23068704.134 614744.768 10920542.247 10 0 60603 34200.00000 0 -21582542.193 313529.141 13636947.151 10 0 60603 35100.00000 0 -19824533.717 -205640.732 16089193.368 10 0 60603 36000.00000 0 -17851514.188 -966927.235 18229828.404 10 0 60603 36900.00000 0 -15725953.890 -1983000.643 20017429.945 10 0 60603 37800.00000 0 -13513457.836 -3254270.455 21417397.479 10 0 60603 38700.00000 0 -11280153.931 -4768635.798 22402613.886 10 0 60603 39600.00000 0 -9090076.890 -6501766.187 22953965.146 10 0 60603 40500.00000 0 -7002655.321 -8417902.240 23060708.858 10 0 60603 41400.00000 0 -5070405.017 -10471144.587 22720684.796 10 0 60603 42300.00000 0 -3336923.100 -12607179.151 21940363.403 10 0 60603 43200.00000 0 -1835265.276 -14765368.976 20734730.790 10 0 60603 44100.00000 0 -586772.958 -16881127.468 19127011.605 10 0 60603 45000.00000 0 399601.376 -18888475.953 17148233.926 10 0 60603 45900.00000 0 1127442.644 -20722680.332 14836643.204 10 0 60603 46800.00000 0 1612489.169 -22322857.806 12236975.106 10 0 60603 47700.00000 0 1881732.143 -23634445.082 9399599.975 10 0 60603 48600.00000 0 1972036.110 -24611424.696 6379554.335 10 0 60603 49500.00000 0 1928338.393 -25218215.492 3235477.351 10 0 60603 50400.00000 0 1801503.418 -25431146.854 28472.562 10 0 60603 51300.00000 0 1645922.927 -25239453.469 -3179082.998 10 0 60603 52200.00000 0 1516964.278 -24645747.345 -6324758.674 10 0 60603 53100.00000 0 1468375.908 -23665945.880 -9347294.434 10 0 60603 54000.00000 0 1549761.250 -22328657.886 -12187804.604 10 0 60603 54900.00000 0 1804229.748 -20674052.574 -14790936.431 10 0 60603 55800.00000 0 2266326.207 -18752258.666 -17105959.647 10 0 60603 56700.00000 0 2960327.907 -16621360.872 -19087764.741 10 0 60603 57600.00000 0 3898983.181 -14345078.135 -20697749.614 10 0 60603 58500.00000 0 5082746.235 -11990221.538 -21904576.698 10 0 60603 59400.00000 0 6499541.717 -9624038.998 -22684785.517 10 0 60603 60300.00000 0 8125069.903 -7311558.360 -23023248.719 10 0 60603 61200.00000 0 9923640.294 -5113040.398 -22913462.920 10 0 60603 62100.00000 0 11849498.932 -3081648.131 -22357669.111 10 0 60603 63000.00000 0 13848593.877 -1261429.418 -21366800.832 10 0 60603 63900.00000 0 15860704.691 314303.723 -19960261.731 10 0 60603 64800.00000 0 17821846.563 1624132.659 -18165537.500 10 0 60603 65700.00000 0 19666848.127 2659179.879 -16017650.395 10 0 60603 66600.00000 0 21331994.860 3423221.851 -13558467.592 10 0 60603 67500.00000 0 22757627.291 3932264.531 -10835877.484 10 0 60603 68400.00000 0 23890585.330 4213601.696 -7902850.508 10 0 60603 69300.00000 0 24686396.585 4304397.950 -4816403.362 10 0 60603 70200.00000 0 25111117.541 4249858.112 -1636487.219 10 0 60603 71100.00000 0 25142751.144 4101061.870 1575178.059 10 0 60603 72000.00000 0 24772182.234 3912556.382 4756300.786 10 0 60603 72900.00000 0 24003592.566 3739809.298 7845222.078 10 0 60603 73800.00000 0 22854338.928 3636630.177 10782105.055 10 0 60603 74700.00000 0 21354300.204 3652669.217 13510085.895 10 0 60603 75600.00000 0 19544721.204 3831098.583 15976365.115 10 0 60603 76500.00000 0 17476601.733 4206573.709 18133218.832 10 0 60603 77400.00000 0 15208697.946 4803560.045 19938911.435 10 0 60603 78300.00000 0 12805218.678 5635095.391 21358493.194 10 0 60603 79200.00000 0 10333311.669 6702039.849 22364468.464 10 0 60603 80100.00000 0 7860442.989 7992845.318 22937322.564 10 0 60603 81000.00000 0 5451777.041 9483855.052 23065897.871 10 0 60603 81900.00000 0 3167664.415 11140122.090 22747612.237 10 0 60603 82800.00000 0 1061340.414 12916714.010 21988515.493 10 0 60603 83700.00000 0 -823071.493 14760451.442 20803182.486 10 0 60603 84600.00000 0 -2452169.357 16612009.725 19214443.844 10 0 60603 85500.00000 0 -3804429.369 18408297.835 17252958.511 10 0 60604 0.00000 0 -4870861.510 20085016.645 14956635.118 10 0 60604 900.00000 0 -5655137.553 21579291.621 12369910.625 10 0 60604 1800.00000 0 -6173184.617 22832268.166 9542901.964 10 0 60604 2700.00000 0 -6452263.043 23791563.928 6530441.841 10 0 60604 3600.00000 0 -6529565.705 24413472.395 3391019.553 10 0 60604 4500.00000 0 -6450398.362 24664825.131 185645.818 10 0 60604 5400.00000 0 -6266017.949 24524432.828 -3023336.113 10 0 60604 6300.00000 0 -6031220.686 23984042.958 -6173469.510 10 0 60604 7200.00000 0 -5801782.916 23048772.095 -9203408.801 10 0 60604 8100.00000 0 -5631864.209 21736993.194 -12054124.880 10 0 60604 9000.00000 0 -5571484.148 20079681.359 -14670066.430 10 0 60604 9900.00000 0 -5664181.258 18119244.723 -17000253.386 10 0 60604 10800.00000 0 -5944954.812 15907889.078 -18999280.150 10 0 60604 11700.00000 0 -6438578.174 13505584.790 -20628208.125 10 0 60604 12600.00000 0 -7158356.349 10977721.406 -21855329.547 10 0 60604 13500.00000 0 -8105381.389 8392548.557 -22656787.414 10 0 60604 14400.00000 0 -9268317.915 5818510.577 -23017039.400 10 0 60604 15300.00000 0 -10623728.343 3321586.574 -22929156.918 10 0 60604 16200.00000 0 -12136924.433 962747.089 -22394953.923 10 0 60604 17100.00000 0 -13763309.362 -1204366.747 -21424943.479 10 0 60604 18000.00000 0 -15450153.778 -3135445.357 -20038123.558 10 0 60604 18900.00000 0 -17138730.958 -4797111.681 -18261596.892 10 0 60604 19800.00000 0 -18766721.101 -6168055.634 -16130032.931 10 0 60604 20700.00000 0 -20270783.520 -7239656.511 -13684983.019 10 0 60604 21600.00000 0 -21589188.520 -8016069.487 -10974062.761 10 0 60604 22500.00000 0 -22664398.409 -8513774.961 -8050018.035 10 0 60604 23400.00000 0 -23445489.345 -8760612.010 -4969693.421 10 0 60604 24300.00000 0 -23890312.631 -8794338.877 -1792923.598 10 0 60604 25200.00000 0 -23967305.162 -8660783.082 1418630.381 10 0 60604 26100.00000 0 -23656873.639 -8411660.733 4602676.994 10 0 60604 27000.00000 0 -22952295.168 -8102158.226 7697499.047 10 0 60604 27900.00000 0 -21860097.154 -7788379.040 10643144.144 10 0 60604 28800.00000 0 -20399901.186 -7524763.637 13382578.063 10 0 60604 29700.00000 0 -18603737.811 -7361591.163 15862779.375 10 0 60604 30600.00000 0 -16514860.961 -7342667.845 18035754.971 10 0 60604 31500.00000 0 -14186111.247 -7503298.925 19859457.876 10 0 60604 32400.00000 0 -11677895.721 -7868628.920 21298590.745 10 0 60604 33300.00000 0 -9055867.131 -8452419.645 22325280.649 10 0 60604 34200.00000 0 -6388397.853 -9256317.266 22919613.081 10 0 60604 35100.00000 0 -3743951.829 -10269639.501 23070015.603 10 0 60604 36000.00000 0 -1188461.851 -11469692.744 22773484.147 10 0 60604 36900.00000 0 1217180.576 -12822607.067 22035647.552 10 0 60604 37800.00000 0 3419420.210 -14284655.783 20870668.654 10 0 60604 38700.00000 0 5374023.863 -15804006.157 19300982.996 10 0 60604 39600.00000 0 7047675.366 -17322829.834 17356879.001 10 0 60604 40500.00000 0 8419113.963 -18779686.309 15075926.364 10 0 60604 41400.00000 0 9479768.943 -20112080.918 12502262.206 10 0 60604 42300.00000 0 10233863.948 -21259090.979 9685747.428 10 0 60604 43200.00000 0 10697986.520 -22163950.118 6681008.469 10 0 60604 44100.00000 0 10900140.710 -22776481.938 3546382.108 10 0 60604 45000.00000 0 10878322.514 -23055279.799 342783.477 10 0 60604 45900.00000 0 10678678.249 -22969539.631 -2867480.785 10 0 60604 46800.00000 0 10353323.954 -22500466.986 -6021930.714 10 0 60604 47700.00000 0 9957918.653 -21642197.201 -9059137.983 10 0 60604 48600.00000 0 9549095.109 -20402188.155 -11919932.755 10 0 60604 49500.00000 0 9181858.059 -18801067.482 -14548567.734 10 0 60604 50400.00000 0 8907061.480 -16871939.328 -16893815.465 10 0 60604 51300.00000 0 8769073.143 -14659178.891 -18909976.428 10 0 60604 52200.00000 0 8803726.673 -12216764.766 -20557777.404 10 0 60604 53100.00000 0 9036649.006 -9606218.850 -21805141.933 10 0 60604 54000.00000 0 9482034.899 -6894240.124 -22627817.567 10 0 60604 54900.00000 0 10141920.989 -4150131.467 -23009847.628 10 0 60604 55800.00000 0 11005990.441 -1443127.268 -22943878.488 10 0 60604 56700.00000 0 12051916.547 1160266.559 -22431296.778 10 0 60604 57600.00000 0 13246230.697 3598809.287 -21482194.383 10 0 60604 58500.00000 0 14545677.844 5818833.500 -20115162.517 10 0 60604 59400.00000 0 15899001.987 7776229.172 -18356919.526 10 0 60604 60300.00000 0 17249086.030 9438022.208 -16241780.305 10 0 60604 61200.00000 0 18535355.491 10783483.133 -13810978.321 10 0 60604 62100.00000 0 19696344.520 11804721.561 -11111854.045 10 0 60604 63000.00000 0 20672315.976 12506743.831 -8196926.200 10 0 60604 63900.00000 0 21407825.172 12906973.699 -5122864.433 10 0 60604 64800.00000 0 21854119.509 13034258.575 -1949383.955 10 0 60604 65700.00000 0 21971273.290 12927405.230 1261916.033 10 0 60604 66600.00000 0 21729968.333 12633308.503 4448747.197 10 0 60604 67500.00000 0 21112846.047 12204753.269 7549336.956 10 0 60604 68400.00000 0 20115374.716 11697983.319 10503620.133 10 0 60604 69300.00000 0 18746196.036 11170140.128 13254394.616 10 0 60604 70200.00000 0 17026936.695 10676679.497 15748419.276 10 0 60604 71100.00000 0 14991492.863 10268874.570 17937433.754 10 0 60604 72000.00000 0 12684817.181 9991509.711 19779081.391 10 0 60604 72900.00000 0 10161258.165 9880861.576 21237718.628 10 0 60604 73800.00000 0 7482520.060 9963051.507 22285096.336 10 0 60604 74700.00000 0 4715326.613 10252837.992 22900900.918 10 0 60604 75600.00000 0 1928884.120 10752899.688 23073145.485 10 0 60604 76500.00000 0 -807752.816 11453639.386 22798403.974 10 0 60604 77400.00000 0 -3428305.320 12333517.805 22081883.688 10 0 60604 78300.00000 0 -5871776.973 13359904.428 20937334.421 10 0 60604 79200.00000 0 -8084740.681 14490411.137 19386795.101 10 0 60604 80100.00000 0 -10023311.793 15674654.396 17460181.666 10 0 60604 81000.00000 0 -11654726.199 16856373.663 15194722.741 10 0 60604 81900.00000 0 -12958458.064 17975818.586 12634252.553 10 0 60604 82800.00000 0 -13926830.566 18972305.674 9828373.347 10 0 60604 83700.00000 0 -14565093.968 19786837.549 6831502.367 10 0 60604 84600.00000 0 -14890967.474 20364674.447 3701820.948 10 0 60604 85500.00000 0 -14933663.859 20657749.063 500145.741 10 0 60605 0.00000 0 -14732437.840 20626821.764 -2711255.757 10 0 60605 900.00000 0 -14334719.408 20243283.658 -5869883.623 10 0 60605 1800.00000 0 -13793911.647 19490529.704 -8914229.045 10 0 60605 2700.00000 0 -13166946.527 18364841.975 -11784983.830 10 0 60605 3600.00000 0 -12511703.244 16875743.935 -14426206.844 10 0 60605 4500.00000 0 -11884399.494 15045809.171 -16786425.116 10 0 60605 5400.00000 0 -11337067.332 12909931.301 -18819646.793 10 0 60605 6300.00000 0 -10915221.635 10514084.698 -20486265.302 10 0 60605 7200.00000 0 -10655820.884 7913627.476 -21753836.452 10 0 60605 8100.00000 0 -10585607.285 5171217.501 -22597712.982 10 0 60605 9000.00000 0 -10719896.937 2354428.574 -23001524.176 10 0 60605 9900.00000 0 -11061871.345 -466833.517 -22957491.332 10 0 60605 10800.00000 0 -11602400.124 -3223007.174 -22466573.364 10 0 60605 11700.00000 0 -12320402.014 -5847531.806 -21538440.218 10 0 60605 12600.00000 0 -13183728.470 -8279374.799 -20191275.211 10 0 60605 13500.00000 0 -14150531.848 -10465323.874 -18451410.805 10 0 60605 14400.00000 0 -15171059.817 -12361950.206 -16352805.533 10 0 60605 15300.00000 0 -16189799.588 -13937161.688 -13936372.908 10 0 60605 16200.00000 0 -17147880.923 -15171283.155 -11249176.032 10 0 60605 17100.00000 0 -17985636.102 -16057620.399 -8343504.100 10 0 60605 18000.00000 0 -18645208.553 -16602486.497 -5275849.426 10 0 60605 18900.00000 0 -19073100.019 -16824691.649 -2105805.330 10 0 60605 19800.00000 0 -19222548.941 -16754520.117 1105093.255 10 0 60605 20700.00000 0 -19055640.061 -16432239.281 4294563.595 10 0 60605 21600.00000 0 -18545056.756 -15906205.198 7400780.121 10 0 60605 22500.00000 0 -17675402.793 -15230645.633 10363567.268 10 0 60605 23400.00000 0 -16444038.280 -14463214.677 13125557.392 10 0 60605 24300.00000 0 -14861395.019 -13662422.135 15633291.931 10 0 60605 25200.00000 0 -12950757.957 -12885045.665 17838245.406 10 0 60605 26100.00000 0 -10747521.599 -12183633.937 19697753.405 10 0 60605 27000.00000 0 -8297951.690 -11604204.932 21175827.809 10 0 60605 27900.00000 0 -5657502.685 -11184235.120 22243844.621 10 0 60605 28800.00000 0 -2888759.574 -10951023.087 22881092.133 10 0 60605 29700.00000 0 -59087.842 -10920495.597 23075169.606 10 0 60605 30600.00000 0 2761912.814 -11096505.887 22822229.211 10 0 60605 31500.00000 0 5505047.326 -11470653.757 22127056.572 10 0 60605 32400.00000 0 8104149.072 -12022635.550 21002987.954 10 0 60605 33300.00000 0 10498581.493 -12721110.376 19471664.844 10 0 60605 34200.00000 0 12635514.884 -13525047.432 17562629.527 10 0 60605 35100.00000 0 14471884.664 -14385499.300 15312768.058 10 0 60605 36000.00000 0 15975950.080 -15247727.993 12765609.916 10 0 60605 36900.00000 0 17128388.416 -16053595.439 9970496.494 10 0 60605 37800.00000 0 17922878.811 -16744118.447 6981633.311 10 0 60605 38700.00000 0 18366150.852 -17262080.659 3857043.435 10 0 60605 39600.00000 0 18477495.489 -17554590.935 657441.993 10 0 60605 40500.00000 0 18287758.504 -17575479.240 -2554946.400 10 0 60605 41400.00000 0 17837858.807 -17287427.439 -5717603.912 10 0 60605 42300.00000 0 17176894.176 -16663743.241 -8768944.953 10 0 60605 43200.00000 0 16359914.908 -15689700.378 -11649525.964 10 0 60605 44100.00000 0 15445460.164 -14363386.432 -14303214.754 10 0 60605 45000.00000 0 14492962.146 -12696020.666 -16678295.365 10 0 60605 45900.00000 0 13560128.918 -10711726.758 -18728485.837 10 0 60605 46800.00000 0 12700417.608 -8446768.667 -20413848.131 10 0 60605 47700.00000 0 11960705.755 -5948280.731 -21701571.819 10 0 60605 48600.00000 0 11379259.896 -3272544.613 -22566615.908 10 0 60605 49500.00000 0 10984087.627 -482884.873 -22992196.257 10 0 60605 50400.00000 0 10791742.788 2352728.954 -22970109.243 10 0 60605 51300.00000 0 10806633.929 5164273.660 -22500885.760 10 0 60605 52200.00000 0 11020864.679 7882348.983 -21593773.072 10 0 60605 53100.00000 0 11414611.932 10440828.062 -20266545.449 10 0 60605 54000.00000 0 11957024.932 12779371.594 -18545147.949 10 0 60605 54900.00000 0 12607606.235 14845701.540 -16463180.875 10 0 60605 55800.00000 0 13318015.266 16597540.469 -14061235.618 10 0 60605 56700.00000 0 14034217.313 18004136.938 -11386095.433 10 0 60605 57600.00000 0 14698886.444 19047314.786 -8489817.278 10 0 60605 58500.00000 0 15253960.230 19722004.345 -5428713.196 10 0 60605 59400.00000 0 15643237.987 20036235.383 -2262251.540 10 0 60605 60300.00000 0 15814912.670 20010594.173 948100.156 10 0 60605 61200.00000 0 15723929.578 19677169.470 4140067.865 10 0 60605 62100.00000 0 15334072.601 19078033.478 7251776.016 10 0 60605 63000.00000 0 14619690.371 18263323.024 10222941.449 10 0 60605 63900.00000 0 13566989.973 17289002.614 12996033.518 10 0 60605 64800.00000 0 12174844.036 16214403.856 15517378.497 10 0 60605 65700.00000 0 10455077.324 15099644.645 17738187.754 10 0 60605 66600.00000 0 8432220.532 14003036.026 19615490.794 10 0 60605 67500.00000 0 6142740.915 12978584.790 21112956.312 10 0 60605 68400.00000 0 3633780.785 12073695.484 22201586.506 10 0 60605 69300.00000 0 961455.000 11327167.107 22860272.280 10 0 60605 70200.00000 0 -1811223.506 10767567.399 23076199.390 10 0 60605 71100.00000 0 -4616705.977 10412052.078 22845098.166 10 0 60605 72000.00000 0 -7385461.860 10265678.054 22171332.018 10 0 60605 72900.00000 0 -10048620.650 10321239.425 21067822.644 10 0 60605 73800.00000 0 -12540593.764 10559633.545 19555812.553 10 0 60605 74700.00000 0 -14801569.017 10950742.576 17664468.359 10 0 60605 75600.00000 0 -16779775.097 11454794.576 15430331.111 10 0 60605 76500.00000 0 -18433422.419 12024147.971 12896622.775 10 0 60605 77400.00000 0 -19732239.561 12605425.368 10112420.895 10 0 60605 78300.00000 0 -20658540.908 13141907.528 7131716.165 10 0 60605 79200.00000 0 -21207780.359 13576086.860 4012370.273 10 0 60605 80100.00000 0 -21388567.238 13852272.478 814993.776 10 0 60605 81000.00000 0 -21222143.172 13919135.998 -2398234.243 10 0 60605 81900.00000 0 -20741341.518 13732089.276 -5564781.398 10 0 60605 82800.00000 0 -19989072.987 13255391.889 -8622987.656 10 0 60605 83700.00000 0 -19016401.496 12463897.354 -11513276.513 10 0 60605 84600.00000 0 -17880291.892 11344362.213 -14179326.913 10 0 60605 85500.00000 0 -16641125.381 9896260.695 -16569181.834 99